DECAYED

CZ-6A DEB, 55004 (Decayed)

Orbit data source: Space-Track

CZ-6A DEB, 55004 was space debris in SSO originally from a launch on Fri, 11 Nov 2022 UTC launched from the Taiyaun Space Center, China (TSC). Debris objects in space refer to the collection of defunct objects orbiting the Earth. Examples of debris include non-operational satellites, rocket bodies, and fragments generated from explosions, collisions, or faulty payload assembly.

Loading next visibility...
Identifier
55004, 2022-151UU
Orbit
Decayed
Country
Flag of CNCN / PRC
Related business
Manufacturer
SAST
Mission
Decayed spacecraft
Bus & Motor
Unknown
Mass
Unknown
Launch date (UTC)
2022-11-11 (4 years ago)
Launch vehicle
Unknown
Launch site
Taiyaun Space Center, China (TSC)
Object type
Payload
Rocket body
Debris
Shape & HBR
Unknown shape, 0.1 m
Radar Cross Section
Medium (>0.1 m² and <1 m²)

Expand to show TLE details & history
Last TLE update: 8 months ago

TLE from 8 months ago
0 CZ-6A DEB
1 55004U 22151UU  25339.78459741  .02640428  00000-0  17311-1 0  9992
2 55004  98.6158  62.1609 0014475 352.3428   7.7608 15.72384454162724
Epoch: 2025-12-05T18:49Z
TLE epoch observation values (Epoch: 2025-12-05T18:49:49.216Z)
Latitude
-0.00003°
Longitude
64.88412°
Altitude
345.552 km
Speed
7.707 km/s
True Right ascension
04h 08m 38s
True Declination
0° 00' 00"
Sunlit
Object was in full shadow at epoch
Visualization orbit readout
Latitude
Unknown
Longitude
Unknown
Altitude
Unknown
Speed
Unknown
Apparent Right ascension
Unknown
Apparent Declination
Unknown
Sunlit
N/A
Visualization observer readout
Local Sidereal Time
01:54:59
Azimuth
Unknown
Elevation
Unknown
Doppler factor
Unknown
Orbital elements
Apogee altitude
358.775 km
Perigee altitude
339.3 km
Semi-major axis
6,727.175 km
Eccentricity
0.00145
Inclination
98.6158°
RAAN
62.1609°
Arg. of periapsis
352.3428°
True anomaly
7.78324°
Mean anomaly
7.7608°
Eccentric anomaly
7.77202°
Mean motion
3.93364 °/min
Orbital period
91.52 mins
BSTAR
0.017311
Loading maneuver chart data...
Computing Atmospheric mass density...
Loading historical data...
Loading historical data...
Loading historical data...
Loading historical data...
Loading historical data...
Loading historical data...
Loading historical data...

Documentation

Showing up to 5 results
|